RYR363B LEMI-EGHH

Flight info

Callsign RYR363B
Flight time 2h 7m
Altitude 38000
Route ALT N851 MITOS N608 COMPI Y90 USKAR DCT MOPAS DCT GIROM DCT AGN DCT SECHE DCT UVELI DCT CNA DCT MANAK UY110 ORIST Y110 THRED
Aircraft B38M/M-SADE3FGILRWY/SB1

Departure

Time 2026-04-23 12:26
Airport Region of Murcia International Airport (LEMI)

Arrival

Time 2026-04-23 14:33
Airport Bournemouth Airport (EGHH)
Time Latitude Longitude Altitude Speed Heading
2026-04-23 12:01 37.80403 -1.13060 643 ft 0 kts 315°
2026-04-23 12:17 37.80391 -1.13045 643 ft 4 kts 315°
2026-04-23 12:17 37.80372 -1.13022 645 ft 4 kts 321°
2026-04-23 12:18 37.80350 -1.13006 645 ft 4 kts 356°
2026-04-23 12:18 37.80335 -1.13013 647 ft 2 kts 48°
2026-04-23 12:18 37.80319 -1.13035 643 ft 1 kts 48°
2026-04-23 12:18 37.80319 -1.13036 643 ft 2 kts 48°
2026-04-23 12:21 37.80321 -1.13033 643 ft 1 kts 48°
2026-04-23 12:21 37.80342 -1.13003 644 ft 9 kts 48°
2026-04-23 12:22 37.80395 -1.12932 643 ft 13 kts 46°
2026-04-23 12:22 37.80457 -1.12843 643 ft 14 kts 67°
2026-04-23 12:22 37.80425 -1.12749 643 ft 13 kts 137°
2026-04-23 12:22 37.80344 -1.12752 644 ft 13 kts 218°
2026-04-23 12:23 37.80275 -1.12838 643 ft 15 kts 225°
2026-04-23 12:23 37.80199 -1.12935 643 ft 16 kts 225°
2026-04-23 12:23 37.80116 -1.13045 643 ft 18 kts 227°
2026-04-23 12:23 37.80024 -1.13162 643 ft 20 kts 225°
2026-04-23 12:24 37.79926 -1.13287 644 ft 21 kts 225°
2026-04-23 12:24 37.79820 -1.13424 643 ft 23 kts 226°
2026-04-23 12:24 37.79706 -1.13571 643 ft 24 kts 225°
2026-04-23 12:24 37.79584 -1.13727 643 ft 26 kts 225°
2026-04-23 12:25 37.79478 -1.13753 643 ft 17 kts 136°
2026-04-23 12:25 37.79414 -1.13644 641 ft 10 kts 78°
2026-04-23 12:25 37.79514 -1.13509 641 ft 49 kts 46°
2026-04-23 12:25 37.79910 -1.13000 642 ft 111 kts 45°
2026-04-23 12:26 37.80569 -1.12174 685 ft 152 kts 42°
2026-04-23 12:26 37.81335 -1.11240 1257 ft 158 kts 50°
2026-04-23 12:26 37.82100 -1.10286 2170 ft 142 kts 47°
2026-04-23 12:26 37.82835 -1.09388 2781 ft 160 kts 47°
2026-04-23 12:27 37.83704 -1.08327 3178 ft 186 kts 47°
2026-04-23 12:27 37.84699 -1.07120 3649 ft 209 kts 47°
2026-04-23 12:27 37.85806 -1.05794 4208 ft 229 kts 46°
2026-04-23 12:27 37.87023 -1.04345 4668 ft 251 kts 46°
2026-04-23 12:28 37.88348 -1.02771 5099 ft 271 kts 46°
2026-04-23 12:28 37.89725 -1.01141 5791 ft 277 kts 46°
2026-04-23 12:28 37.91159 -0.99442 6417 ft 288 kts 46°
2026-04-23 12:28 37.92648 -0.97674 7026 ft 296 kts 45°
2026-04-23 12:29 37.94161 -0.95879 7737 ft 301 kts 45°
2026-04-23 12:29 37.95688 -0.94069 8485 ft 300 kts 44°
2026-04-23 12:29 37.97223 -0.92246 9091 ft 306 kts 44°
2026-04-23 12:29 37.98780 -0.90395 9806 ft 307 kts 43°
2026-04-23 12:30 38.00341 -0.88537 10397 ft 312 kts 43°
2026-04-23 12:30 38.01971 -0.86595 10608 ft 330 kts 43°
2026-04-23 12:30 38.03655 -0.84588 10909 ft 342 kts 43°
2026-04-23 12:30 38.05394 -0.82516 11423 ft 345 kts 43°
2026-04-23 12:31 38.07155 -0.80414 11914 ft 348 kts 43°
2026-04-23 12:31 38.08918 -0.78311 12432 ft 350 kts 43°
2026-04-23 12:31 38.10708 -0.76173 12804 ft 355 kts 42°
2026-04-23 12:31 38.12502 -0.74040 13357 ft 354 kts 41°
2026-04-23 12:32 38.14323 -0.71882 13630 ft 362 kts 41°
2026-04-23 12:32 38.16160 -0.69702 14105 ft 360 kts 41°
2026-04-23 12:32 38.18001 -0.67517 14411 ft 365 kts 41°
2026-04-23 12:32 38.19834 -0.65338 14822 ft 364 kts 41°
2026-04-23 12:33 38.21679 -0.63143 15524 ft 363 kts 41°
2026-04-23 12:33 38.23530 -0.60939 16108 ft 366 kts 41°
2026-04-23 12:33 38.25391 -0.58720 16717 ft 368 kts 41°
2026-04-23 12:33 38.26979 -0.56129 17199 ft 375 kts 62°
2026-04-23 12:34 38.28019 -0.53091 17824 ft 376 kts 66°
2026-04-23 12:34 38.29047 -0.49991 18210 ft 383 kts 66°
2026-04-23 12:34 38.30067 -0.46863 18760 ft 382 kts 66°
2026-04-23 12:34 38.31080 -0.43717 19156 ft 386 kts 66°
2026-04-23 12:35 38.32083 -0.40582 19599 ft 387 kts 67°
2026-04-23 12:35 38.33097 -0.37406 20035 ft 389 kts 66°
2026-04-23 12:35 38.34122 -0.34187 20403 ft 393 kts 66°
2026-04-23 12:35 38.35146 -0.30967 20880 ft 393 kts 66°
2026-04-23 12:36 38.36196 -0.27726 21195 ft 398 kts 65°
2026-04-23 12:36 38.37279 -0.24491 21695 ft 396 kts 65°
2026-04-23 12:36 38.38361 -0.21241 21998 ft 401 kts 65°
2026-04-23 12:36 38.39448 -0.17965 22445 ft 400 kts 65°
2026-04-23 12:37 38.40520 -0.14731 22765 ft 404 kts 65°
2026-04-23 12:37 38.41616 -0.11418 23119 ft 405 kts 65°
2026-04-23 12:37 38.42755 -0.08131 23466 ft 406 kts 59°
2026-04-23 12:37 38.44444 -0.05266 23724 ft 403 kts 40°
2026-04-23 12:38 38.46707 -0.03214 24018 ft 399 kts 24°
2026-04-23 12:38 38.49312 -0.02038 24176 ft 398 kts
2026-04-23 12:38 38.52053 -0.01661 24458 ft 396 kts
2026-04-23 12:38 38.54814 -0.01476 24677 ft 398 kts 359°
2026-04-23 12:39 38.57598 -0.01373 25066 ft 400 kts 359°
2026-04-23 12:39 38.60352 -0.01313 25507 ft 403 kts 358°
2026-04-23 12:39 38.63161 -0.01273 25945 ft 405 kts 358°
2026-04-23 12:39 38.65986 -0.01245 26355 ft 408 kts 358°
2026-04-23 12:40 38.68836 -0.01222 26744 ft 411 kts 358°
2026-04-23 12:40 38.71705 -0.01200 27153 ft 413 kts 358°
2026-04-23 12:40 38.74590 -0.01180 27525 ft 416 kts 358°
2026-04-23 12:40 38.77492 -0.01160 27961 ft 418 kts 358°
2026-04-23 12:41 38.80412 -0.01140 28348 ft 421 kts 358°
2026-04-23 12:41 38.83309 -0.01121 28727 ft 423 kts 358°
2026-04-23 12:41 38.86259 -0.01102 29131 ft 425 kts 358°
2026-04-23 12:41 38.89229 -0.01082 29504 ft 428 kts 358°
2026-04-23 12:42 38.92215 -0.01063 29882 ft 430 kts 358°
2026-04-23 12:42 38.95217 -0.01043 30250 ft 432 kts 358°
2026-04-23 12:42 38.98236 -0.01023 30545 ft 435 kts 358°
2026-04-23 12:42 39.01269 -0.01003 30875 ft 436 kts 358°
2026-04-23 12:43 39.04273 -0.00983 31166 ft 439 kts 358°
2026-04-23 12:43 39.07335 -0.00963 31455 ft 441 kts 358°
2026-04-23 12:43 39.10410 -0.00942 31756 ft 443 kts 358°
2026-04-23 12:43 39.13505 -0.00922 32047 ft 445 kts 358°
2026-04-23 12:44 39.16609 -0.00901 32354 ft 447 kts 358°
2026-04-23 12:44 39.19724 -0.00880 32639 ft 449 kts 358°
2026-04-23 12:44 39.22857 -0.00860 32916 ft 451 kts 358°
2026-04-23 12:44 39.25999 -0.00839 33269 ft 451 kts 358°
2026-04-23 12:45 39.29135 -0.00818 33668 ft 450 kts 358°
2026-04-23 12:45 39.32262 -0.00797 34064 ft 449 kts 358°
2026-04-23 12:45 39.35342 -0.00549 34396 ft 452 kts
2026-04-23 12:45 39.38373 0.00519 34769 ft 451 kts 13°
2026-04-23 12:46 39.41399 0.01588 35057 ft 451 kts 12°
2026-04-23 12:46 39.44423 0.02677 35351 ft 451 kts 13°
2026-04-23 12:46 39.47438 0.03781 35643 ft 450 kts 13°
2026-04-23 12:46 39.50451 0.04892 35926 ft 450 kts 13°
2026-04-23 12:47 39.53461 0.06005 36198 ft 450 kts 13°
2026-04-23 12:47 39.56467 0.07118 36459 ft 449 kts 13°
2026-04-23 12:47 39.59435 0.08218 36724 ft 449 kts 13°
2026-04-23 12:47 39.62432 0.09330 37005 ft 448 kts 13°
2026-04-23 12:48 39.65429 0.10442 37255 ft 448 kts 12°
2026-04-23 12:48 39.68420 0.11553 37491 ft 447 kts 12°
2026-04-23 12:48 39.71408 0.12665 37732 ft 447 kts 12°
2026-04-23 12:48 39.74396 0.13777 37953 ft 446 kts 12°
2026-04-23 12:49 39.77378 0.14888 38154 ft 446 kts 12°
2026-04-23 12:49 39.80365 0.16002 38197 ft 447 kts 12°
2026-04-23 12:49 39.86273 0.18209 38182 ft 443 kts 12°
2026-04-23 12:50 39.92207 0.20429 38178 ft 444 kts 12°
2026-04-23 12:50 39.98148 0.22655 38185 ft 444 kts 12°
2026-04-23 12:51 40.04085 0.24881 38196 ft 444 kts 12°
2026-04-23 12:51 40.09970 0.27092 38183 ft 443 kts 12°
2026-04-23 12:52 40.15893 0.29321 38186 ft 443 kts 12°
2026-04-23 12:52 40.21818 0.31553 38186 ft 443 kts 12°
2026-04-23 12:53 40.27742 0.33791 38197 ft 443 kts 12°
2026-04-23 12:53 40.33652 0.36029 38185 ft 442 kts 12°
2026-04-23 12:54 40.39518 0.38258 38205 ft 442 kts 13°
2026-04-23 12:54 40.45417 0.40502 38190 ft 440 kts 12°
2026-04-23 12:55 40.51294 0.42742 38200 ft 440 kts 12°
2026-04-23 12:55 40.57173 0.44988 38194 ft 440 kts 12°
2026-04-23 12:56 40.63014 0.47222 38195 ft 440 kts 12°
2026-04-23 12:56 40.68892 0.49475 38199 ft 440 kts 12°
2026-04-23 12:57 40.74767 0.51731 38190 ft 440 kts 12°
2026-04-23 12:57 40.80646 0.53993 38197 ft 440 kts 12°
2026-04-23 12:58 40.86485 0.56244 38189 ft 440 kts 12°
2026-04-23 12:58 40.92362 0.58513 38197 ft 440 kts 12°
2026-04-23 12:59 40.98240 0.60786 38187 ft 440 kts 12°
2026-04-23 12:59 41.04113 0.63063 38192 ft 440 kts 12°
2026-04-23 13:00 41.09984 0.65342 38186 ft 440 kts 12°
2026-04-23 13:00 41.15814 0.67611 38185 ft 439 kts 12°
2026-04-23 13:01 41.21678 0.69894 38183 ft 439 kts 12°
2026-04-23 13:01 41.27543 0.72184 38176 ft 439 kts 12°
2026-04-23 13:02 41.33410 0.74478 38171 ft 439 kts 12°
2026-04-23 13:02 41.39235 0.76760 38184 ft 439 kts 12°
2026-04-23 13:03 41.45078 0.79054 38166 ft 437 kts 12°
2026-04-23 13:03 41.50920 0.81351 38168 ft 438 kts 12°
2026-04-23 13:04 41.56757 0.83651 38166 ft 437 kts 12°
2026-04-23 13:04 41.62597 0.85957 38159 ft 438 kts 12°
2026-04-23 13:05 41.68393 0.88249 38159 ft 438 kts 12°
2026-04-23 13:05 41.74234 0.90563 38158 ft 438 kts 12°
2026-04-23 13:06 41.82988 0.94040 38158 ft 437 kts 12°
2026-04-23 13:07 41.88822 0.96363 38129 ft 438 kts 12°
2026-04-23 13:07 41.94660 0.98692 38133 ft 438 kts 12°
2026-04-23 13:08 42.00458 1.01009 38141 ft 437 kts 12°
2026-04-23 13:08 42.06287 1.03343 38130 ft 437 kts 12°
2026-04-23 13:09 42.12121 1.05675 38140 ft 436 kts 11°
2026-04-23 13:09 42.15084 1.06252 38108 ft 426 kts 354°
2026-04-23 13:09 42.18029 1.06024 38149 ft 425 kts 353°
2026-04-23 13:10 42.23906 1.05522 38166 ft 425 kts 352°
2026-04-23 13:10 42.29814 1.04916 38176 ft 426 kts 352°
2026-04-23 13:11 42.35715 1.04283 38164 ft 425 kts 352°
2026-04-23 13:11 42.41624 1.03643 38187 ft 426 kts 352°
2026-04-23 13:12 42.47481 1.03007 38165 ft 424 kts 352°
2026-04-23 13:12 42.53365 1.02365 38172 ft 424 kts 352°
2026-04-23 13:13 42.59257 1.01722 38144 ft 424 kts 352°
2026-04-23 13:13 42.65139 1.01078 38144 ft 424 kts 352°
2026-04-23 13:14 42.71014 1.00434 38129 ft 423 kts 352°
2026-04-23 13:14 42.76853 0.99793 38120 ft 424 kts 352°
2026-04-23 13:15 42.82729 0.99149 38155 ft 424 kts 352°
2026-04-23 13:15 42.88611 0.98502 38081 ft 423 kts 352°
2026-04-23 13:16 42.94489 0.97854 38129 ft 425 kts 352°
2026-04-23 13:16 43.00328 0.97209 38108 ft 423 kts 352°
2026-04-23 13:17 43.06206 0.96558 38081 ft 423 kts 352°
2026-04-23 13:17 43.12067 0.95909 38087 ft 423 kts 352°
2026-04-23 13:18 43.17938 0.95257 38085 ft 423 kts 352°
2026-04-23 13:18 43.23804 0.94604 38103 ft 423 kts 352°
2026-04-23 13:19 43.29629 0.93955 38090 ft 422 kts 352°
2026-04-23 13:19 43.35494 0.93300 38094 ft 423 kts 352°
2026-04-23 13:20 43.41360 0.92643 38095 ft 423 kts 352°
2026-04-23 13:20 43.47219 0.91986 38097 ft 422 kts 352°
2026-04-23 13:21 43.53068 0.91329 38102 ft 422 kts 352°
2026-04-23 13:21 43.58877 0.90675 38101 ft 421 kts 352°
2026-04-23 13:22 43.64724 0.90016 38113 ft 421 kts 352°
2026-04-23 13:22 43.70557 0.89357 38101 ft 421 kts 352°
2026-04-23 13:23 43.76394 0.88696 38111 ft 421 kts 352°
2026-04-23 13:23 43.82192 0.88038 38108 ft 421 kts 352°
2026-04-23 13:24 43.88008 0.87239 38092 ft 416 kts 343°
2026-04-23 13:24 43.93320 0.84256 38073 ft 414 kts 334°
2026-04-23 13:25 43.98571 0.80974 38117 ft 414 kts 333°
2026-04-23 13:25 44.03800 0.77617 38119 ft 414 kts 333°
2026-04-23 13:26 44.08985 0.74264 38107 ft 415 kts 333°
2026-04-23 13:26 44.14228 0.70865 38100 ft 416 kts 333°
2026-04-23 13:27 44.19470 0.67460 38101 ft 416 kts 333°
2026-04-23 13:27 44.24710 0.64051 38107 ft 416 kts 333°
2026-04-23 13:28 44.29912 0.60658 38115 ft 416 kts 333°
2026-04-23 13:28 44.35153 0.57233 38113 ft 416 kts 333°
2026-04-23 13:29 44.40391 0.53804 38110 ft 416 kts 333°
2026-04-23 13:29 44.44737 0.50943 38111 ft 415 kts 333°
2026-04-23 13:30 44.50807 0.46922 38119 ft 415 kts 333°
2026-04-23 13:30 44.56029 0.43456 38126 ft 415 kts 333°
2026-04-23 13:31 44.60365 0.40573 38115 ft 415 kts 333°
2026-04-23 13:31 44.65587 0.37094 38107 ft 416 kts 333°
2026-04-23 13:32 44.70825 0.33598 38124 ft 418 kts 333°
2026-04-23 13:32 44.76071 0.30090 38130 ft 417 kts 333°
2026-04-23 13:33 44.81280 0.26599 38117 ft 417 kts 333°
2026-04-23 13:33 44.86520 0.23080 38124 ft 418 kts 333°
2026-04-23 13:34 44.91765 0.19551 38129 ft 418 kts 333°
2026-04-23 13:34 44.97005 0.16018 38121 ft 417 kts 333°
2026-04-23 13:35 45.02209 0.12504 38106 ft 417 kts 333°
2026-04-23 13:35 45.07441 0.08960 38106 ft 417 kts 333°
2026-04-23 13:36 45.12674 0.05409 38115 ft 417 kts 333°
2026-04-23 13:36 45.17904 0.01853 38111 ft 417 kts 333°
2026-04-23 13:37 45.23134 -0.01711 38094 ft 418 kts 333°
2026-04-23 13:37 45.28353 -0.05274 38109 ft 420 kts 332°
2026-04-23 13:38 45.33613 -0.08872 38114 ft 419 kts 332°
2026-04-23 13:38 45.38871 -0.12477 38124 ft 420 kts 332°
2026-04-23 13:39 45.44130 -0.16089 38126 ft 420 kts 332°
2026-04-23 13:39 45.49350 -0.19683 38126 ft 420 kts 332°
2026-04-23 13:40 45.54605 -0.23308 38130 ft 420 kts 332°
2026-04-23 13:40 45.59861 -0.26941 38138 ft 420 kts 332°
2026-04-23 13:41 45.65108 -0.30590 38126 ft 419 kts 330°
2026-04-23 13:41 45.69769 -0.35506 38112 ft 418 kts 321°
2026-04-23 13:42 45.74317 -0.40581 38133 ft 418 kts 321°
2026-04-23 13:42 45.78884 -0.45731 38136 ft 418 kts 321°
2026-04-23 13:43 45.83446 -0.50893 38130 ft 418 kts 321°
2026-04-23 13:43 45.88008 -0.56066 38134 ft 418 kts 321°
2026-04-23 13:44 45.92534 -0.61209 38135 ft 418 kts 321°
2026-04-23 13:44 45.97091 -0.66399 38140 ft 418 kts 321°
2026-04-23 13:45 46.01650 -0.71601 38145 ft 418 kts 321°
2026-04-23 13:45 46.06206 -0.76812 38139 ft 418 kts 321°
2026-04-23 13:46 46.10729 -0.81996 38133 ft 419 kts 320°
2026-04-23 13:46 46.15296 -0.87242 38143 ft 420 kts 320°
2026-04-23 13:47 46.19864 -0.92499 38150 ft 420 kts 320°
2026-04-23 13:47 46.24428 -0.97766 38135 ft 420 kts 320°
2026-04-23 13:48 46.28962 -1.03010 38130 ft 420 kts 320°
2026-04-23 13:48 46.33525 -1.08298 38133 ft 420 kts 320°
2026-04-23 13:49 46.38085 -1.13594 38137 ft 420 kts 320°
2026-04-23 13:49 46.42646 -1.18904 38147 ft 421 kts 320°
2026-04-23 13:50 46.47181 -1.24195 38145 ft 422 kts 320°
2026-04-23 13:50 46.51759 -1.29548 38149 ft 423 kts 320°
2026-04-23 13:51 46.56335 -1.34911 38165 ft 423 kts 320°
2026-04-23 13:51 46.61094 -1.39886 38147 ft 422 kts 333°
2026-04-23 13:52 46.66389 -1.43654 38139 ft 424 kts 332°
2026-04-23 13:52 46.71657 -1.47410 38157 ft 425 kts 333°
2026-04-23 13:53 46.76966 -1.51184 38156 ft 424 kts 333°
2026-04-23 13:53 46.82274 -1.54962 38154 ft 424 kts 332°
2026-04-23 13:54 46.87745 -1.58111 38131 ft 426 kts 351°
2026-04-23 13:54 46.93673 -1.58923 38121 ft 429 kts 353°
2026-04-23 13:55 46.99589 -1.59600 38161 ft 430 kts 354°
2026-04-23 13:55 47.05547 -1.60218 38163 ft 429 kts 354°
2026-04-23 13:56 47.11504 -1.60828 38157 ft 429 kts 354°
2026-04-23 13:56 47.17451 -1.61510 38169 ft 429 kts 353°
2026-04-23 13:57 47.23354 -1.62301 38156 ft 428 kts 353°
2026-04-23 13:57 47.29294 -1.63086 38162 ft 429 kts 353°
2026-04-23 13:58 47.35229 -1.63886 38165 ft 428 kts 352°
2026-04-23 13:58 47.41161 -1.64731 38174 ft 427 kts 352°
2026-04-23 13:59 47.47035 -1.65565 38187 ft 427 kts 352°
2026-04-23 13:59 47.52947 -1.66405 38187 ft 427 kts 352°
2026-04-23 14:00 47.57864 -1.67106 38189 ft 427 kts 352°
2026-04-23 14:00 47.64783 -1.68094 38195 ft 428 kts 352°
2026-04-23 14:01 47.70728 -1.68945 38204 ft 429 kts 352°
2026-04-23 14:01 47.76630 -1.69792 38197 ft 429 kts 352°
2026-04-23 14:02 47.82576 -1.70648 38205 ft 429 kts 352°
2026-04-23 14:02 47.88507 -1.71504 38210 ft 428 kts 352°
2026-04-23 14:03 47.94445 -1.72360 38214 ft 429 kts 352°
2026-04-23 14:03 48.00333 -1.73213 38208 ft 428 kts 352°
2026-04-23 14:04 48.06264 -1.74061 38207 ft 428 kts 354°
2026-04-23 14:04 48.12232 -1.74067 38211 ft 430 kts 358°
2026-04-23 14:05 48.18202 -1.74125 38217 ft 429 kts 357°
2026-04-23 14:05 48.24175 -1.74209 38215 ft 429 kts 357°
2026-04-23 14:06 48.30085 -1.74297 38215 ft 427 kts 358°
2026-04-23 14:06 48.36042 -1.74384 38223 ft 428 kts 357°
2026-04-23 14:07 48.41999 -1.74472 38234 ft 428 kts 357°
2026-04-23 14:07 48.50941 -1.74603 38233 ft 429 kts 358°
2026-04-23 14:08 48.56909 -1.74691 38239 ft 429 kts 358°
2026-04-23 14:08 48.62838 -1.74779 38239 ft 429 kts 358°
2026-04-23 14:09 48.68806 -1.74867 38242 ft 429 kts 358°
2026-04-23 14:09 48.74776 -1.74956 38246 ft 429 kts 358°
2026-04-23 14:10 48.80747 -1.75045 38128 ft 429 kts 358°
2026-04-23 14:10 48.83723 -1.75090 37882 ft 427 kts 358°
2026-04-23 14:10 48.86694 -1.75134 37576 ft 425 kts 358°
2026-04-23 14:11 48.89652 -1.75179 36710 ft 428 kts 358°
2026-04-23 14:11 48.92624 -1.75084 35688 ft 437 kts 359°
2026-04-23 14:11 48.95682 -1.74953 34849 ft 440 kts 359°
2026-04-23 14:11 48.98740 -1.74836 34236 ft 438 kts 358°
2026-04-23 14:12 49.01774 -1.74722 33561 ft 435 kts 358°
2026-04-23 14:12 49.04797 -1.74609 32809 ft 434 kts 358°
2026-04-23 14:12 49.07816 -1.74497 32024 ft 435 kts 359°
2026-04-23 14:12 49.10849 -1.74385 31224 ft 436 kts 359°
2026-04-23 14:13 49.13886 -1.74272 30431 ft 437 kts 359°
2026-04-23 14:13 49.16930 -1.74159 29638 ft 436 kts 359°
2026-04-23 14:13 49.19943 -1.74047 29035 ft 431 kts 359°
2026-04-23 14:13 49.22880 -1.73938 28450 ft 426 kts 359°
2026-04-23 14:14 49.25825 -1.73828 27863 ft 422 kts 359°
2026-04-23 14:14 49.28747 -1.73719 27273 ft 418 kts 360°
2026-04-23 14:14 49.31639 -1.73611 26694 ft 414 kts 360°
2026-04-23 14:14 49.34512 -1.73504 26124 ft 411 kts
2026-04-23 14:15 49.37358 -1.73397 25559 ft 408 kts
2026-04-23 14:15 49.40184 -1.73291 25000 ft 405 kts
2026-04-23 14:15 49.42956 -1.73187 24456 ft 403 kts
2026-04-23 14:15 49.45746 -1.73083 23899 ft 401 kts
2026-04-23 14:16 49.48527 -1.72978 23256 ft 398 kts
2026-04-23 14:16 49.51285 -1.72874 22682 ft 395 kts
2026-04-23 14:16 49.54016 -1.72771 22145 ft 391 kts
2026-04-23 14:16 49.56723 -1.72669 21606 ft 387 kts
2026-04-23 14:17 49.59406 -1.72609 21053 ft 385 kts 358°
2026-04-23 14:17 49.62056 -1.73264 20439 ft 386 kts 351°
2026-04-23 14:17 49.64677 -1.74026 19959 ft 382 kts 352°
2026-04-23 14:17 49.67278 -1.74784 19465 ft 379 kts 352°
2026-04-23 14:18 49.69826 -1.75534 18970 ft 377 kts 352°
2026-04-23 14:18 49.72403 -1.76294 18441 ft 376 kts 352°
2026-04-23 14:18 49.74968 -1.77053 17886 ft 374 kts 352°
2026-04-23 14:18 49.77520 -1.77808 17370 ft 372 kts 353°
2026-04-23 14:19 49.80057 -1.78561 16884 ft 370 kts 353°
2026-04-23 14:19 49.82580 -1.79309 16404 ft 368 kts 353°
2026-04-23 14:19 49.85091 -1.80056 15927 ft 366 kts 353°
2026-04-23 14:19 49.87587 -1.80798 15459 ft 364 kts 353°
2026-04-23 14:20 49.90094 -1.81543 14614 ft 373 kts 353°
2026-04-23 14:20 49.92680 -1.82313 13738 ft 382 kts 353°
2026-04-23 14:20 49.95278 -1.83088 12869 ft 389 kts 353°
2026-04-23 14:20 49.97953 -1.83886 12048 ft 393 kts 353°
2026-04-23 14:21 50.00640 -1.84613 11508 ft 389 kts 355°
2026-04-23 14:21 50.03279 -1.85188 11315 ft 376 kts 355°
2026-04-23 14:21 50.05819 -1.85758 11207 ft 362 kts 356°
2026-04-23 14:21 50.08277 -1.86315 11047 ft 351 kts 355°
2026-04-23 14:22 50.10628 -1.86854 10862 ft 331 kts 356°
2026-04-23 14:22 50.12837 -1.87360 10712 ft 312 kts 356°
2026-04-23 14:22 50.14951 -1.87842 10578 ft 303 kts 356°
2026-04-23 14:22 50.16990 -1.88307 10302 ft 299 kts 356°
2026-04-23 14:23 50.19060 -1.88779 9840 ft 302 kts 355°
2026-04-23 14:23 50.21139 -1.89254 9455 ft 302 kts 357°
2026-04-23 14:23 50.23205 -1.89728 9146 ft 299 kts 356°
2026-04-23 14:23 50.25255 -1.90200 8840 ft 297 kts 356°
2026-04-23 14:24 50.27290 -1.90667 8532 ft 294 kts 356°
2026-04-23 14:24 50.29309 -1.91132 8217 ft 292 kts 356°
2026-04-23 14:24 50.31314 -1.91594 7916 ft 290 kts 356°
2026-04-23 14:24 50.33306 -1.92054 7625 ft 288 kts 356°
2026-04-23 14:25 50.35259 -1.92504 7325 ft 287 kts 356°
2026-04-23 14:25 50.37231 -1.92959 7024 ft 286 kts 356°
2026-04-23 14:25 50.39192 -1.93412 6726 ft 284 kts 356°
2026-04-23 14:25 50.41155 -1.93866 6303 ft 287 kts 356°
2026-04-23 14:26 50.43158 -1.94328 5786 ft 294 kts 356°
2026-04-23 14:26 50.45186 -1.94798 5375 ft 295 kts 355°
2026-04-23 14:26 50.47212 -1.95268 5066 ft 293 kts 356°
2026-04-23 14:26 50.49225 -1.95735 4747 ft 291 kts 356°
2026-04-23 14:27 50.51198 -1.96193 4444 ft 290 kts 356°
2026-04-23 14:27 50.53182 -1.96654 4185 ft 286 kts 356°
2026-04-23 14:27 50.55123 -1.97106 4046 ft 278 kts 356°
2026-04-23 14:27 50.57002 -1.97544 3948 ft 268 kts 356°
2026-04-23 14:28 50.58816 -1.97967 3816 ft 259 kts 356°
2026-04-23 14:28 50.60577 -1.98376 3680 ft 252 kts 356°
2026-04-23 14:28 50.62288 -1.98776 3523 ft 245 kts 357°
2026-04-23 14:28 50.63951 -1.99164 3407 ft 239 kts 357°
2026-04-23 14:29 50.65573 -1.99542 3251 ft 233 kts 357°
2026-04-23 14:29 50.67153 -1.99912 3095 ft 226 kts 358°
2026-04-23 14:29 50.68691 -2.00273 2919 ft 221 kts 357°
2026-04-23 14:29 50.70186 -2.00623 2664 ft 220 kts 358°
2026-04-23 14:30 50.71687 -2.00974 2465 ft 216 kts 358°
2026-04-23 14:30 50.73166 -2.01312 2293 ft 212 kts
2026-04-23 14:30 50.74537 -2.00947 2037 ft 192 kts 33°
2026-04-23 14:30 50.75432 -1.99573 1851 ft 175 kts 67°
2026-04-23 14:31 50.75771 -1.97788 1650 ft 167 kts 79°
2026-04-23 14:31 50.76045 -1.96047 1453 ft 161 kts 79°
2026-04-23 14:31 50.76313 -1.94415 1279 ft 146 kts 78°
2026-04-23 14:31 50.76557 -1.92940 1101 ft 131 kts 78°
2026-04-23 14:32 50.76784 -1.91582 908 ft 127 kts 78°
2026-04-23 14:32 50.77004 -1.90264 741 ft 122 kts 79°
2026-04-23 14:32 50.77216 -1.88973 589 ft 122 kts 77°
2026-04-23 14:32 50.77446 -1.87662 417 ft 128 kts 75°
2026-04-23 14:33 50.77676 -1.86319 236 ft 125 kts 80°
2026-04-23 14:33 50.77882 -1.84987 65 ft 124 kts 79°
2026-04-23 14:33 50.78072 -1.83859 47 ft 77 kts 75°
2026-04-23 14:33 50.78155 -1.83354 49 ft 22 kts 75°
2026-04-23 14:34 50.78195 -1.83105 47 ft 17 kts 76°
2026-04-23 14:34 50.78176 -1.83043 46 ft 5 kts 170°
2026-04-23 14:34 50.78138 -1.83066 44 ft 7 kts 224°
2026-04-23 14:34 50.78101 -1.83142 45 ft 10 kts 238°
2026-04-23 14:35 50.78058 -1.83247 45 ft 12 kts 238°
2026-04-23 14:35 50.78017 -1.83373 45 ft 14 kts 242°
2026-04-23 14:35 50.77946 -1.83489 44 ft 17 kts 193°
2026-04-23 14:35 50.77825 -1.83470 45 ft 18 kts 177°
2026-04-23 14:36 50.77766 -1.83441 42 ft 6 kts 100°
2026-04-23 14:36 50.77767 -1.83370 45 ft 2 kts 87°